[[{"header":{"parameterUnit":"m.s-1","parameterCategory":1,"la1":30.2991,"la2":30.254,"lo1":-89.0895,"lo2":-89.0444,"dy":0.0017,"dx":0.0017,"nx":28,"ny":28,"refTime":"2024-10-01T21:00:00:Z","depth":0,"parameterNumber":2,"parameterNumberName":"U-component_of_WINDS"},"data":[0,0,0,0,0,0,0,0,0,0,0,0,0,0,0,0,0,0,0,0,0,0,0,0,0,0,0,0,0,0,0,0,0,0,0,0,0,0,0,0,0,0,0,0,0,0,0,0,0,0,0,0,0,0,0,0,0,0,-3.0478,-3.0478,0,-3.0476,-3.0476,-3.0476,-3.0407,-3.0406,-3.0404,-3.0402,-3.0401,-3.0403,-3.0404,0,0,0,0,0,0,0,0,0,0,0,0,0,-3.0424,-3.0425,-3.0478,-3.0478,-3.0478,-3.0476,-3.0476,-3.0476,-3.0408,-3.0405,-3.0403,-3.0401,-3.04,-3.0402,-3.0404,0,0,0,0,0,0,0,0,0,0,0,0,0,-3.0437,-3.0426,-3.0478,-3.0444,-3.044,-3.0476,-3.0476,-3.0476,-3.0408,-3.0405,-3.0403,-3.04,-3.04,-3.0402,-3.0405,-3.0473,0,0,-3.0412,-3.0413,0,0,0,0,0,0,0,0,-3.0436,-3.0439,-3.0449,-3.0446,-3.0443,-3.0439,-3.0456,-3.0475,-3.0409,-3.042,-3.0402,-3.0399,-3.0416,-3.0417,-3.0422,-3.0473,-3.0473,-3.0412,-3.0414,-3.0415,-3.0415,0,0,0,0,0,0,0,-3.0436,-3.0439,-3.0477,-3.0449,-3.0445,-3.0429,-3.0428,-3.0459,-3.0433,-3.0419,-3.0414,-3.0415,-3.0414,-3.042,-3.0422,-3.0473,-3.0412,-3.0414,-3.0416,-3.0417,-3.0581,-3.0583,0,0,0,0,0,0,-3.0439,-3.0439,-3.0477,-3.0477,-3.0433,-3.0432,-3.0431,-3.0443,-3.0433,-3.0428,-3.0417,-3.0412,-3.0417,-3.0419,-3.0421,-3.0502,-3.0415,-3.0417,-3.0418,-3.0578,-3.0581,-3.0584,0,0,0,0,0,0,-3.0438,-3.0443,-3.0477,-3.0456,-3.0459,-3.0436,-3.045,-3.0444,-3.0451,-3.0431,-3.0426,-3.0429,-3.0415,-3.0418,-3.0461,-3.0501,-3.0418,-3.042,-3.0574,-3.0579,-3.0583,-3.0663,0,0,0,0,0,0,-3.0437,-3.0443,-3.0469,-3.0458,-3.0461,-3.0517,-3.0452,-3.0446,-3.0455,-3.0448,-3.044,-3.0437,-3.0413,-3.0458,-3.0463,-3.0503,-3.0422,-3.0571,-3.0576,-3.0581,-3.0656,-3.0669,-3.068,0,0,0,0,0,-3.0435,-3.0491,-3.0471,-3.0476,-3.0492,-3.0519,-3.0521,-3.0493,-3.0458,-3.0484,-3.0472,-3.0437,-3.0495,-3.0463,-3.0468,-3.0509,-3.0568,-3.0575,-3.0581,-3.0651,-3.0667,-3.068,0,0,0,0,0,0,-3.0508,-3.0489,-3.0466,-3.052,-3.0522,-3.0507,-3.0539,-3.051,-3.0522,-3.0515,-3.0479,-3.0478,-3.0527,-3.0522,-3.0486,-3.0575,-3.0526,-3.0534,-3.0577,-3.0592,-3.0603,-3.0604,-3.0424,0,0,0,0,0,-3.053,-3.0553,-3.0536,-3.0585,-3.0587,-3.0563,-3.0573,-3.0552,-3.0552,-3.0553,-3.0543,-3.0545,-3.0564,-3.0577,-3.0594,-3.0655,-3.0653,-3.0686,-3.0698,-3.0708,-3.0716,-3.0749,-3.0764,-3.0606,-3.0606,-3.0606,0,0,-3.0576,-3.0569,-3.0586,-3.0599,-3.0598,-3.0623,-3.0564,-3.0593,-3.0612,-3.0557,-3.0597,-3.0591,-3.0591,-3.0644,-3.0666,-3.0641,-3.0759,-3.0716,-3.0724,-3.0727,-3.0757,-3.0773,-3.0786,-3.061,-3.0609,-3.0609,0,0,-3.0674,-3.067,-3.0711,-3.0711,-3.071,-3.0694,-3.0704,-3.0695,-3.0688,-3.0728,-3.0688,-3.071,-3.0743,-3.0745,-3.075,-3.085,-3.0819,-3.0856,-3.0918,-3.0952,-3.0964,-3.0975,-3.1012,-3.1025,-3.0863,-3.0863,-3.0864,0,-3.0731,-3.0768,-3.0736,-3.0768,-3.0776,-3.0728,-3.077,-3.0771,-3.0776,-3.0783,-3.0754,-3.0795,-3.0792,-3.0845,-3.0869,-3.0875,-3.0886,-3.0857,-3.0965,-3.0975,-3.0985,-3.102,-3.1034,-3.0868,-3.0868,-3.0867,-3.0867,0,-3.0839,-3.0865,-3.0898,-3.0904,-3.0916,-3.0953,-3.0927,-3.0942,-3.092,-3.0907,-3.0949,-3.0943,-3.0958,-3.0969,-3.0947,-3.102,-3.1004,-3.0971,-3.092,-3.1005,-3.1038,-3.105,-3.0875,-3.0873,-3.0872,-3.0871,0,0,-3.0982,-3.0971,-3.0984,-3.0986,-3.0982,-3.1002,-3.1037,-3.1051,-3.1066,-3.107,-3.11,-3.1129,-3.1099,-3.1105,-3.1083,-3.1112,-3.1193,-3.1075,-3.1074,-3.1098,-3.1274,-3.1301,-3.1316,-3.1172,-3.1174,-3.1176,-3.1275,0,-3.1077,-3.1136,-3.111,-3.1172,-3.1196,-3.1151,-3.1182,-3.1183,-3.1172,-3.1191,-3.1179,-3.1201,-3.1158,-3.1162,-3.1189,-3.1177,-3.1228,-3.117,-3.12,-3.1201,-3.1203,-3.1333,-3.136,-3.1454,-3.1287,-3.1289,-3.1291,0,-3.1196,-3.1207,-3.1272,-3.1264,-3.1273,-3.1301,-3.1313,-3.1332,-3.1333,-3.1323,-3.133,-3.1302,-3.1337,-3.1286,-3.1334,-3.1295,-3.1306,-3.1302,-3.1305,-3.1308,-3.1252,-3.134,-3.1482,-3.1497,-3.131,-3.1308,-3.1307,0,-3.1296,-3.1326,-3.1369,-3.1372,-3.1364,-3.1385,-3.1383,-3.1381,-3.1392,-3.1402,-3.1409,-3.1424,-3.1432,-3.1444,-3.1421,-3.1386,-3.1473,-3.142,-3.1467,-3.1467,-3.1488,-3.1487,-3.1635,-3.1493,-3.1493,-3.1492,-3.1492,0,-3.1405,-3.1447,-3.1414,-3.144,-3.1486,-3.1455,-3.1502,-3.1494,-3.1493,-3.1518,-3.148,-3.1504,-3.1471,-3.1493,-3.1475,-3.1518,-3.1522,-3.1516,-3.1511,-3.152,-3.1521,-3.1527,-3.1521,-3.1496,-3.1495,-3.1494,-3.1494,0,-3.1525,-3.1504,-3.1548,-3.1537,-3.1535,-3.157,-3.156,-3.1585,-3.1572,-3.1604,-3.161,-3.1589,-3.1612,-3.159,-3.1612,-3.16,-3.1659,-3.1644,-3.1659,-3.1655,-3.1704,-3.17,-3.1862,-3.1882,-3.1726,-3.1727,-3.1729,0,-3.1597,-3.1628,-3.1621,-3.1635,-3.1635,-3.1658,-3.1669,-3.1639,-3.1653,-3.1657,-3.1681,-3.1701,-3.1716,-3.1756,-3.1743,-3.176,-3.1746,-3.1801,-3.1748,-3.1757,-3.1748,-3.1747,-3.1751,-3.1813,-3.1815,-3.1816,-3.1817,0,-3.1727,-3.1715,-3.1733,-3.1747,-3.1761,-3.1771,-3.1778,-3.1792,-3.1761,-3.1778,-3.1802,-3.1813,-3.1836,-3.1857,-3.1871,-3.1869,-3.1839,-3.1834,-3.1846,-3.1856,-3.1864,-3.1862,-3.169,-3.1831,-3.1829,-3.1828,-3.1828,-3.1827,-3.1826,-3.1852,-3.1851,-3.1872,-3.1874,-3.1882,-3.1905,-3.1894,-3.1913,-3.193,-3.1911,-3.1941,-3.1942,-3.1956,-3.1958,-3.1981,-3.1958,-3.1975,-3.198,-3.1985,-3.1993,-3.186,-3.1984,-3.1983,-3.1983,-3.1982,-3.1982,0,-3.1955,-3.1953,-3.1972,-3.1983,-3.2,-3.197,-3.1976,-3.1992,-3.2019,-3.2022,-3.2037,-3.2065,-3.2086,-3.2075,-3.2093,-3.2114,-3.21,-3.2119,-3.2118,-3.2119,-3.2011,-3.2,-3.213,-3.213,-3.213,-3.213,-3.213,-3.213,-3.2025,-3.2068,-3.2056,-3.2101,-3.2098,-3.2126,-3.2133,-3.214,-3.2142,-3.2175,-3.2192,-3.2185,-3.2183,-3.22,-3.2218,-3.2215,-3.2224,-3.2248,-3.224,-3.214,-3.2126,-3.2112,-3.2101,-3.225,-3.225,-3.2345,-3.2346,-3.2347]},{"header":{"parameterUnit":"m.s-1","parameterCategory":1,"la1":30.2991,"la2":30.254,"lo1":-89.0895,"lo2":-89.0444,"dy":0.0017,"dx":0.0017,"nx":28,"ny":28,"refTime":"2024-10-01T21:00:00:Z","depth":0,"parameterNumber":3,"parameterNumberName":"V-component_of_WINDS"},"data":[0,0,0,0,0,0,0,0,0,0,0,0,0,0,0,0,0,0,0,0,0,0,0,0,0,0,0,0,0,0,0,0,0,0,0,0,0,0,0,0,0,0,0,0,0,0,0,0,0,0,0,0,0,0,0,0,0,0,0.7969,0.797,0,0.8038,0.8039,0.804,0.8099,0.8099,0.81,0.8101,0.8169,0.817,0.8172,0,0,0,0,0,0,0,0,0,0,0,0,0,0.7887,0.7888,0.7969,0.797,0.7971,0.8038,0.8039,0.804,0.8099,0.8099,0.81,0.8101,0.8169,0.817,0.8172,0,0,0,0,0,0,0,0,0,0,0,0,0,0.7936,0.7889,0.7969,0.8008,0.8013,0.8038,0.8039,0.804,0.8098,0.8099,0.81,0.8101,0.8168,0.817,0.8172,0.8163,0,0,0.8177,0.8178,0,0,0,0,0,0,0,0,0.7933,0.7939,0.8002,0.8006,0.801,0.8061,0.8035,0.8081,0.8098,0.8066,0.8101,0.8102,0.8132,0.8137,0.8148,0.8166,0.8169,0.8178,0.8179,0.8179,0.818,0,0,0,0,0,0,0,0.793,0.7936,0.7996,0.8003,0.8008,0.8022,0.803,0.8044,0.8092,0.8069,0.8073,0.8081,0.8135,0.8146,0.815,0.817,0.8178,0.8179,0.818,0.8181,0.8185,0.8184,0,0,0,0,0,0,0.792,0.7933,0.7994,0.7998,0.7974,0.8023,0.8032,0.8044,0.8093,0.8101,0.808,0.8083,0.8142,0.8148,0.8152,0.8145,0.8179,0.8181,0.8182,0.8186,0.8184,0.8183,0,0,0,0,0,0,0.7918,0.7925,0.7991,0.7967,0.7977,0.8023,0.8036,0.8044,0.8056,0.8101,0.811,0.8082,0.8143,0.815,0.816,0.8148,0.8182,0.8184,0.8187,0.8185,0.8184,0.813,0,0,0,0,0,0,0.7916,0.7924,0.7922,0.7967,0.7978,0.7998,0.8035,0.8045,0.8059,0.8064,0.8105,0.8113,0.8145,0.8157,0.8162,0.8151,0.8185,0.8188,0.8186,0.8184,0.8133,0.8127,0.8121,0,0,0,0,0,0.7913,0.7903,0.7921,0.7928,0.7975,0.7997,0.8004,0.804,0.8058,0.8055,0.8084,0.8112,0.8149,0.8158,0.8163,0.8153,0.8189,0.8187,0.8184,0.8135,0.8128,0.8121,0,0,0,0,0,0,0.7855,0.791,0.793,0.7935,0.7961,0.8007,0.8005,0.8031,0.8052,0.8056,0.81,0.8109,0.8114,0.8135,0.8144,0.8147,0.8173,0.8171,0.8133,0.8126,0.8121,0.8115,0.8186,0,0,0,0,0,0.7843,0.7857,0.7904,0.7904,0.7916,0.7958,0.7969,0.7995,0.8024,0.8035,0.8065,0.809,0.8108,0.8119,0.8137,0.8136,0.8146,0.8132,0.8126,0.8122,0.812,0.812,0.8115,0.8176,0.8176,0.8176,0,0,0.7818,0.785,0.7856,0.7893,0.7916,0.7929,0.7967,0.7979,0.7988,0.8036,0.8048,0.807,0.8102,0.8107,0.811,0.8124,0.8105,0.8119,0.8114,0.8115,0.8117,0.8112,0.8106,0.8174,0.8175,0.8175,0,0,0.7779,0.7805,0.7807,0.783,0.7865,0.7893,0.7894,0.7936,0.7953,0.7966,0.8002,0.8014,0.8043,0.8064,0.8079,0.8048,0.8074,0.8053,0.8022,0.8022,0.8018,0.8014,0.8002,0.7997,0.8051,0.8051,0.8051,0,0.7743,0.7764,0.7805,0.7815,0.783,0.7875,0.7877,0.7897,0.7936,0.7945,0.796,0.7998,0.8023,0.8033,0.8025,0.8036,0.8037,0.8048,0.8015,0.8011,0.8008,0.7998,0.7993,0.8048,0.8048,0.8049,0.8049,0,0.7719,0.7733,0.7731,0.7768,0.7783,0.7789,0.7829,0.784,0.7865,0.7891,0.7903,0.7934,0.796,0.7964,0.7988,0.7977,0.7985,0.8007,0.8033,0.7999,0.799,0.7986,0.8044,0.8045,0.8046,0.8046,0,0,0.7644,0.7704,0.7703,0.772,0.7762,0.7773,0.7781,0.7807,0.7815,0.784,0.7847,0.7871,0.7892,0.7909,0.7936,0.7936,0.7909,0.7958,0.796,0.7947,0.7898,0.788,0.7875,0.7927,0.7926,0.7926,0.7895,0,0.7611,0.7629,0.7666,0.7671,0.7685,0.7728,0.7735,0.7761,0.7786,0.78,0.7828,0.7844,0.787,0.7881,0.7883,0.7911,0.7899,0.7914,0.7933,0.7933,0.7923,0.787,0.7852,0.7821,0.7892,0.7891,0.7891,0,0.7575,0.7599,0.7606,0.7647,0.7654,0.7659,0.7686,0.77,0.773,0.7748,0.7767,0.7797,0.7807,0.7832,0.7846,0.7855,0.7865,0.788,0.788,0.7883,0.7909,0.787,0.7813,0.7807,0.7886,0.7886,0.7886,0,0.7519,0.7553,0.7561,0.7575,0.7623,0.7626,0.7646,0.7678,0.7691,0.7714,0.7723,0.7747,0.7759,0.7777,0.7812,0.7827,0.7822,0.785,0.7837,0.7835,0.7833,0.7832,0.7775,0.784,0.784,0.784,0.7841,0,0.7478,0.7481,0.7537,0.7542,0.7546,0.7588,0.759,0.7615,0.7642,0.7652,0.7691,0.77,0.7746,0.776,0.7788,0.7795,0.78,0.7815,0.7822,0.7811,0.7809,0.7817,0.782,0.7839,0.784,0.784,0.784,0,0.7416,0.7454,0.7466,0.7512,0.7523,0.7524,0.7562,0.7568,0.7596,0.7608,0.7613,0.7656,0.7675,0.7712,0.774,0.7759,0.7759,0.7773,0.7749,0.7753,0.7738,0.7738,0.7683,0.7677,0.7747,0.7746,0.7745,0,0.7387,0.739,0.7436,0.7446,0.7465,0.748,0.7494,0.7536,0.7548,0.7583,0.7585,0.7607,0.7626,0.7653,0.7686,0.7708,0.7721,0.7701,0.7725,0.7714,0.772,0.7719,0.772,0.7695,0.7694,0.7693,0.7692,0,0.7332,0.735,0.7369,0.7394,0.741,0.7431,0.7455,0.7461,0.7508,0.752,0.7539,0.7554,0.7583,0.7604,0.7631,0.7651,0.7679,0.7685,0.7683,0.7671,0.7657,0.7663,0.7733,0.7685,0.7686,0.7687,0.7687,0.7687,0.7285,0.729,0.7323,0.7342,0.7364,0.7386,0.7394,0.7423,0.744,0.7467,0.7491,0.7508,0.7538,0.7577,0.7596,0.7609,0.7623,0.762,0.7619,0.7618,0.7613,0.7655,0.7614,0.7614,0.7615,0.7615,0.7615,0,0.7231,0.7254,0.7272,0.7304,0.7319,0.7346,0.7373,0.7384,0.7399,0.7425,0.7443,0.7465,0.7485,0.752,0.7543,0.7547,0.7561,0.7552,0.7551,0.7555,0.7599,0.7599,0.754,0.754,0.754,0.754,0.754,0.754,0.7204,0.7213,0.7236,0.7256,0.728,0.7297,0.7311,0.733,0.7351,0.7374,0.7392,0.7415,0.7444,0.747,0.7489,0.7499,0.7505,0.7492,0.7505,0.7545,0.7552,0.7559,0.7559,0.7493,0.7493,0.746,0.746,0.746]}]]